Ithaca, NY

9:11 PM EDT on April 20, 2018 (GMT -0400)
Tompkins County

Weather History for KITH - November, 2011

Change the Weather History Date:

Wednesday, November 9, 2011

  Actual Average Record
Temperature  
Mean Temperature 54 °F -  
Max Temperature 65 °F 48 °F 72 °F (1931)
Min Temperature 43 °F 32 °F 14 °F (1971)
Degree Days  
Heating Degree Days 11    
Growing Degree Days 4 (Base 50)    
Moisture  
Dew Point 38 °F    
Average Humidity 56    
Maximum Humidity 86    
Minimum Humidity 32    
Precipitation  
Precipitation 0.00 in - - ()
Sea Level Pressure  
Sea Level Pressure 30.02 in    
Wind  
Wind Speed 10 mph (SSE)    
Max Wind Speed 21 mph    
Max Gust Speed 25 mph    
Visibility 10 miles    
Events      
Averages and records for this station are not official NWS values.
T = Trace of Precipitation, MM = Missing Value Source: NWS Daily Summary

Daily Weather History Graph

Daily Weather History Graph

Search for Another Location

Airport or City:

Astronomy

Nov. 09, 2011 Rise Set
Actual Time 6:49 AM EST 4:49 PM EST
Civil Twilight 6:19 AM EST 5:19 PM EST
Nautical Twilight 5:45 AM EST 5:53 PM EST
Astronomical Twilight 5:12 AM EST 6:26 PM EST
Moon 4:00 PM EST (11/9) 5:42 AM EST (11/9)
Length of Visible Light 11h 00m
Length of Day
10h 00m
Waxing Gibbous, 99% of the Moon is Illuminated
Nov 9
Waxing Gibbous
Nov 10
Full
Nov 18
Last Quarter
Nov 25
New
Dec 2
First Quarter

Hourly Weather History & Observations

Time (EST) Temp. Windchill Dew Point Humidity Pressure Visibility Wind Dir Wind Speed Gust Speed Precip Events Conditions
12:56 AM 50.0 °F - 41.0 °F 71% 30.15 in 10.0 mi SSE 8.1 mph - N/A   Clear
2:56 AM 47.8 °F - 41.0 °F 77% 30.15 in 10.0 mi East 3.5 mph - N/A   Clear
3:56 AM 45.9 °F 43.6 °F 41.0 °F 83% 30.14 in 10.0 mi East 4.6 mph - N/A   Clear
4:56 AM 45.9 °F 42.9 °F 41.0 °F 83% 30.14 in 10.0 mi SE 5.8 mph - N/A   Clear
5:56 AM 43.9 °F 40.5 °F 39.9 °F 86% 30.14 in 10.0 mi East 5.8 mph - N/A   Clear
6:21 AM 44.6 °F 42.2 °F 39.2 °F 81% 30.13 in 10.0 mi ESE 4.6 mph - N/A   Clear
6:56 AM 45.9 °F 42.9 °F 39.9 °F 80% 30.14 in 10.0 mi East 5.8 mph - N/A   Clear
7:56 AM 50.0 °F - 41.0 °F 71% 30.14 in 10.0 mi SE 4.6 mph - N/A   Clear
8:56 AM 52.9 °F - 41.9 °F 66% 30.12 in 10.0 mi SSE 15.0 mph - N/A   Clear
9:56 AM 55.9 °F - 41.0 °F 57% 30.11 in 10.0 mi SSE 11.5 mph - N/A   Clear
10:56 AM 59.0 °F - 38.8 °F 47% 30.09 in 10.0 mi South 13.8 mph 19.6 mph N/A   Clear
11:56 AM 61.9 °F - 38.8 °F 43% 30.05 in 10.0 mi South 11.5 mph 18.4 mph N/A   Clear
12:56 PM 64.9 °F - 37.9 °F 37% 30.00 in 10.0 mi SSE 13.8 mph 19.6 mph N/A   Clear
1:56 PM 65.8 °F - 36.9 °F 34% 29.97 in 10.0 mi South 17.3 mph - N/A   Clear
2:56 PM 65.8 °F - 34.9 °F 32% 29.94 in 10.0 mi South 16.1 mph 23.0 mph N/A   Clear
3:56 PM 63.9 °F - 36.0 °F 36% 29.94 in 10.0 mi SSE 10.4 mph - N/A   Clear
4:56 PM 61.0 °F - 34.9 °F 38% 29.91 in 10.0 mi SSE 13.8 mph - N/A   Clear
5:56 PM 59.0 °F - 34.9 °F 40% 29.91 in 10.0 mi South 12.7 mph 19.6 mph N/A   Clear
6:56 PM 56.8 °F - 32.9 °F 40% 29.91 in 10.0 mi South 11.5 mph - N/A   Clear
7:56 PM 55.9 °F - 34.9 °F 45% 29.89 in 10.0 mi SSE 20.7 mph - N/A   Clear
8:56 PM 54.9 °F - 36.0 °F 49% 29.89 in 10.0 mi South 17.3 mph 25.3 mph N/A   Clear
9:56 PM 54.0 °F - 34.9 °F 49% 29.89 in 10.0 mi SSE 19.6 mph 23.0 mph N/A   Clear
10:56 PM 52.0 °F - 34.9 °F 52% 29.90 in 10.0 mi South 18.4 mph - N/A   Clear
11:56 PM 52.0 °F - 36.9 °F 56% 29.90 in 10.0 mi South 13.8 mph - N/A   Clear